Simultaneous Nadir Overpasses (SNOs) Predictions

Prediction of SNOs between NOAA-19 and TERRA Satellite Orbit:

Table of predicted SNOs for the next 14.0 days since TLE Epoch: 7/15/2023
Index Date (NOAA-19) Time (NOAA-19) Lat,Lon (NOAA-19) SZA (NOAA-19 ) Date (TERRA) Time (TERRA) Lat,Lon (TERRA) SZA (TERRA ) Distance(km) Time Diff (sec)
1 07/15/2023 05:52:34 80.89, 125.08 60.75 07/15/2023 05:52:33 80.89, 124.91 60.73 3.04 1
2 07/17/2023 09:42:58 -80.88,-112.76 118.94 07/17/2023 09:42:46 -80.90,-112.62 118.92 2.93 12
3 07/19/2023 12:42:29 -80.87,-158.43 118.65 07/19/2023 12:43:37 -80.87,-158.24 118.61 3.29 68
4 07/19/2023 13:33:31 80.88, 9.57 61.44 07/19/2023 13:32:58 80.87, 9.49 61.41 2.03 33
5 07/21/2023 16:33:00 80.88, -35.53 61.81 07/21/2023 16:33:47 80.89, -35.58 61.83 1.18 47
6 07/21/2023 17:23:54 -80.89, 132.20 118.14 07/21/2023 17:23:10 -80.89, 132.08 118.17 2.00 44
7 07/23/2023 20:23:25 -80.87, 86.43 117.81 07/23/2023 20:24:00 -80.86, 86.57 117.79 2.55 35
8 07/23/2023 21:14:26 80.88,-105.47 62.29 07/23/2023 21:13:20 80.89,-105.37 62.28 2.13 66
9 07/26/2023 00:13:56 80.87,-151.09 62.66 07/26/2023 00:14:10 80.86,-151.00 62.66 1.68 14



Historial Predications of SNOs between NOAA-19 and TERRA
